Ann Arbor, MI

5:50 PM EDT on March 28, 2017 (GMT -0400)
Ann Arbor Municipal

Weather History for KARB - July, 2012

Change the Weather History Date:

Wednesday, July 11, 2012

  Actual Average Record
Temperature  
Mean Temperature 69 °F -  
Max Temperature 86 °F 80 °F 87 °F (2010)
Min Temperature 54 °F 54 °F 44 °F (1999)
Cooling Degree Days 4    
Growing Degree Days 19 (Base 50)    
Moisture  
Dew Point 52 °F    
Average Humidity 55    
Maximum Humidity 90    
Minimum Humidity 29    
Precipitation  
Precipitation 0.00 in - - ()
Sea Level Pressure  
Sea Level Pressure 30.15 in    
Wind  
Wind Speed 3 mph (East)    
Max Wind Speed 9 mph    
Max Gust Speed -    
Visibility 10 miles    
Events      
Averages and records for this station are not official NWS values.
T = Trace of Precipitation, MM = Missing Value Source: NWS Daily Summary

Daily Weather History Graph

Daily Weather History Graph

Search for Another Location

Airport or City:

Trip Planner

Search our weather history database for the weather conditions in past years. The results will help you decide how hot, cold, wet, or windy it might be!

Date:

Astronomy

Jul. 11, 2012 Rise Set
Actual Time 6:09 AM EDT 9:11 PM EDT
Civil Twilight 5:35 AM EDT 9:45 PM EDT
Nautical Twilight 4:52 AM EDT 10:28 PM EDT
Astronomical Twilight 4:01 AM EDT 11:18 PM EDT
Moon 12:46 AM EDT (7/11) 2:42 PM EDT (7/11)
Length of Visible Light 16h 09m
Length of Day
15h 02m
Last Quarter, 44% of the Moon is Illuminated
Jul 11
Last Quarter
Jul 19
New
Jul 26
First Quarter
Aug 1
Full
Aug 9
Last Quarter

Hourly Weather History & Observations

Time (EDT) Temp. Dew Point Humidity Pressure Visibility Wind Dir Wind Speed Gust Speed Precip Events Conditions
12:53 AM 68.0 °F 52.0 °F 56% 30.14 in 10.0 mi ENE 3.5 mph - N/A   Clear
1:53 AM 59.0 °F 53.1 °F 81% 30.14 in 10.0 mi Calm Calm - N/A   Clear
2:53 AM 55.0 °F 52.0 °F 89% 30.15 in 10.0 mi Calm Calm - N/A   Clear
3:53 AM 55.0 °F 52.0 °F 89% 30.15 in 10.0 mi Calm Calm - N/A   Clear
4:53 AM 55.9 °F 52.0 °F 87% 30.16 in 10.0 mi Calm Calm - N/A   Clear
5:53 AM 54.0 °F 51.1 °F 90% 30.17 in 10.0 mi ENE 3.5 mph - N/A   Clear
6:53 AM 57.0 °F 54.0 °F 89% 30.17 in 10.0 mi Calm Calm - N/A   Clear
7:53 AM 66.9 °F 55.9 °F 68% 30.18 in 10.0 mi NNE 3.5 mph - N/A   Clear
8:53 AM 73.0 °F 55.0 °F 53% 30.18 in 10.0 mi ENE 3.5 mph - N/A   Clear
9:53 AM 75.9 °F 55.0 °F 48% 30.18 in 10.0 mi East 5.8 mph - N/A   Clear
10:53 AM 79.0 °F 52.0 °F 39% 30.18 in 10.0 mi ENE 5.8 mph - N/A   Clear
11:53 AM 81.0 °F 50.0 °F 34% 30.18 in 10.0 mi East 6.9 mph - N/A   Clear
12:53 PM 82.9 °F 50.0 °F 32% 30.17 in 10.0 mi East 6.9 mph - N/A   Scattered Clouds
1:53 PM 82.9 °F 48.0 °F 29% 30.17 in 10.0 mi Calm Calm - N/A   Scattered Clouds
2:53 PM 82.0 °F 48.9 °F 31% 30.16 in 10.0 mi ENE 8.1 mph - N/A   Mostly Cloudy
3:53 PM 84.9 °F 48.9 °F 29% 30.14 in 10.0 mi Variable 4.6 mph - N/A   Partly Cloudy
4:53 PM 84.0 °F 50.0 °F 31% 30.14 in 10.0 mi ENE 3.5 mph - N/A   Scattered Clouds
5:53 PM 84.9 °F 50.0 °F 30% 30.13 in 10.0 mi ENE 9.2 mph - N/A   Mostly Cloudy
6:53 PM 81.0 °F 50.0 °F 34% 30.12 in 10.0 mi SE 4.6 mph - N/A   Clear
7:53 PM 78.1 °F 48.9 °F 36% 30.12 in 10.0 mi SE 5.8 mph - N/A   Clear
8:53 PM 75.9 °F 50.0 °F 40% 30.13 in 10.0 mi SE 4.6 mph - N/A   Clear
9:53 PM 66.9 °F 54.0 °F 63% 30.14 in 10.0 mi SE 3.5 mph - N/A   Clear
11:53 PM 59.0 °F 54.0 °F 83% 30.15 in 10.0 mi Calm Calm - N/A   Clear